Weather History for Astoria, OR

Change the Weather History Date:

Wednesday, March 5, 2014

  Actual Average Record
Temperature  
Mean Temperature 53 °F 45 °F  
Max Temperature 56 °F 53 °F 71 °F (1905)
Min Temperature 49 °F 38 °F 26 °F (1955)
Degree Days  
Heating Degree Days 12 20  
Month to date heating degree days 75 100  
Since 1 July heating degree days 3504 3442  
Cooling Degree Days 0 0  
Month to date cooling degree days 0 0  
Year to date cooling degree days 0 0  
Growing Degree Days 3 (Base 50)    
Moisture  
Dew Point 51 °F    
Average Humidity 92    
Maximum Humidity 100    
Minimum Humidity 83    
Precipitation  
Precipitation 1.43 in 0.25 in 3.45 in (1932)
Month to date precipitation 2.49 1.30  
Year to date precipitation 16.25 18.69  
Sea Level Pressure  
Sea Level Pressure 29.62 in    
Wind  
Wind Speed 18 mph (SSW)    
Max Wind Speed 38 mph    
Max Gust Speed 59 mph    
Visibility 4 miles    
Events Rain    
T = Trace of Precipitation, MM = Missing Value Source: NWS Daily Summary

Daily Weather History Graph

Daily Weather History Graph

Search for Another Location

Airport:

Trip Planner

Search our weather history database for the weather conditions in past years. The results will help you decide how hot, cold, wet, or windy it might be!

Date:

Astronomy

Mar. 05, 2014 Rise Set
Actual Time 6:46 AM PST 6:07 PM PST
Civil Twilight 6:17 AM PST 6:37 PM PST
Nautical Twilight 5:42 AM PST 7:12 PM PST
Astronomical Twilight 5:07 AM PST 7:47 PM PST
Moon 8:59 AM PST (3/5) 11:40 PM PST (3/5)
Length of Visible Light 12h 20m
Length of Day
11h 20m
Waxing Crescent, 24% of the Moon is Illuminated
Mar 5
Waxing Crescent
Mar 8
First Quarter
Mar 16
Full
Mar 23
Last Quarter
Mar 30
New

Hourly Weather History & Observations

Time (PST) Temp. Dew Point Humidity Pressure Visibility Wind Dir Wind Speed Gust Speed Precip Events Conditions
12:22 AM 48.9 °F 48.0 °F 97% 29.73 in 2.5 mi East 4.6 mph - 0.03 in Rain Light Rain
12:33 AM 52.0 °F 50.0 °F 93% 29.72 in 3.0 mi SE 4.6 mph - 0.04 in Rain Light Rain
12:55 AM 53.1 °F 51.1 °F 93% 29.72 in 5.0 mi South 5.8 mph - 0.06 in Rain Light Rain
1:45 AM 55.0 °F 52.0 °F 89% 29.70 in 6.0 mi South 19.6 mph 28.8 mph 0.08 in Rain Light Rain
1:52 AM 55.4 °F 51.8 °F 88% 29.70 in 6.0 mi South 24.2 mph 40.3 mph 0.08 in Rain Light Rain
1:55 AM 55.9 °F 52.0 °F 87% 29.70 in 5.0 mi South 17.3 mph 40.3 mph 0.09 in Rain Light Rain
2:55 AM 55.0 °F 52.0 °F 89% 29.68 in 4.0 mi South 17.3 mph 40.3 mph 0.11 in Rain Light Rain
3:03 AM 55.0 °F 52.0 °F 89% 29.67 in 6.0 mi South 21.9 mph 40.3 mph 0.01 in Rain Light Rain
3:15 AM 55.0 °F 52.0 °F 89% 29.67 in 7.0 mi South 24.2 mph 39.1 mph 0.01 in Rain Light Rain
3:55 AM 54.0 °F 51.1 °F 90% 29.67 in 4.0 mi SSW 17.3 mph 36.8 mph 0.04 in Rain Light Rain
4:08 AM 54.0 °F 51.1 °F 90% 29.67 in 3.0 mi SSW 24.2 mph 42.6 mph 0.01 in Rain Light Rain
4:15 AM 54.0 °F 51.1 °F 90% 29.67 in 2.5 mi SSW 23.0 mph 36.8 mph 0.01 in Rain Light Rain
4:37 AM 54.0 °F 51.1 °F 90% 29.67 in 5.0 mi SSW 18.4 mph 36.8 mph 0.01 in Rain Light Rain
4:55 AM 54.0 °F 51.1 °F 90% 29.67 in 5.0 mi SSW 25.3 mph 35.7 mph 0.02 in Rain Light Rain
5:03 AM 53.1 °F 51.1 °F 93% 29.67 in 2.5 mi SSW 24.2 mph 41.4 mph 0.00 in Rain Light Rain
5:15 AM 53.1 °F 51.1 °F 93% 29.67 in 3.0 mi SSW 23.0 mph 35.7 mph 0.00 in Rain Light Rain
5:35 AM 53.1 °F 51.1 °F 93% 29.68 in 2.5 mi SSW 18.4 mph 36.8 mph 0.00 in Rain Light Rain
5:55 AM 53.1 °F 51.1 °F 93% 29.69 in 4.0 mi SSW 23.0 mph 32.2 mph 0.01 in Rain Light Rain
6:03 AM 53.1 °F 51.1 °F 93% 29.70 in 3.0 mi SSW 19.6 mph 32.2 mph 0.00 in Rain Light Rain
6:13 AM 53.1 °F 50.0 °F 89% 29.69 in 2.5 mi SSW 20.7 mph 36.8 mph 0.00 in Rain Light Rain
6:26 AM 53.1 °F 51.1 °F 93% 29.70 in 4.0 mi SSW 13.8 mph 29.9 mph 0.00 in Rain Light Rain
6:55 AM 53.1 °F 50.0 °F 89% 29.70 in 3.0 mi South 19.6 mph 27.6 mph 0.00 in   Overcast
7:18 AM 53.1 °F 50.0 °F 89% 29.71 in 2.0 mi SSW 19.6 mph 33.4 mph 0.00 in Rain Light Rain
7:41 AM 52.0 °F 50.0 °F 93% 29.72 in 2.0 mi SSW 19.6 mph 28.8 mph 0.00 in   Overcast
7:50 AM 51.8 °F 50.0 °F 94% 29.72 in 1.2 mi SSW 18.4 mph 29.9 mph 0.00 in   Overcast
7:55 AM 52.0 °F 51.1 °F 97% 29.72 in 1.2 mi SSW 13.8 mph 29.9 mph 0.00 in Rain Light Rain
8:06 AM 53.1 °F 51.1 °F 93% 29.72 in 1.5 mi SSW 19.6 mph 27.6 mph 0.00 in Rain Light Rain
8:25 AM 52.0 °F 51.1 °F 97% 29.72 in 2.0 mi SSW 13.8 mph 23.0 mph 0.00 in Rain Light Rain
8:37 AM 53.1 °F 51.1 °F 93% 29.72 in 1.8 mi SSW 15.0 mph 27.6 mph 0.00 in Rain Light Rain
8:48 AM 52.0 °F 51.1 °F 97% 29.72 in 1.2 mi SSW 16.1 mph 26.5 mph 0.00 in Rain Light Rain
8:55 AM 52.0 °F 51.1 °F 97% 29.73 in 1.5 mi SW 16.1 mph 23.0 mph 0.00 in Rain Light Rain
9:02 AM 53.1 °F 51.1 °F 93% 29.72 in 2.0 mi SSW 13.8 mph 23.0 mph 0.00 in Rain Light Rain
9:08 AM 53.1 °F 51.1 °F 93% 29.72 in 1.8 mi SSW 15.0 mph 28.8 mph 0.00 in Rain Light Rain
9:48 AM 53.1 °F 51.1 °F 93% 29.73 in 3.0 mi SSW 18.4 mph 26.5 mph 0.00 in   Overcast
9:55 AM 53.1 °F 51.1 °F 93% 29.73 in 3.0 mi SSW 16.1 mph 24.2 mph 0.00 in   Overcast
10:22 AM 53.1 °F 51.1 °F 93% 29.72 in 10.0 mi SSW 11.5 mph 24.2 mph N/A   Overcast
10:55 AM 54.0 °F 51.1 °F 90% 29.71 in 2.5 mi SSW 11.5 mph 20.7 mph N/A   Overcast
11:11 AM 54.0 °F 52.0 °F 93% 29.71 in 4.0 mi SSW 12.7 mph - N/A   Overcast
11:48 AM 54.0 °F 51.1 °F 90% 29.69 in 2.0 mi SSW 9.2 mph - 0.01 in Rain Light Rain
11:55 AM 54.0 °F 51.1 °F 90% 29.69 in 2.0 mi South 9.2 mph 20.7 mph 0.02 in Rain Rain
11:58 AM 54.0 °F 51.1 °F 90% 29.68 in 2.0 mi South 10.4 mph 20.7 mph 0.02 in Rain Rain
12:05 PM 54.0 °F 51.1 °F 90% 29.68 in 1.8 mi South 9.2 mph - 0.04 in Rain Light Rain
12:17 PM 54.0 °F 52.0 °F 93% 29.67 in 2.0 mi South 12.7 mph 19.6 mph 0.06 in Rain Light Rain
12:27 PM 54.0 °F 51.1 °F 90% 29.67 in 8.0 mi SSW 12.7 mph 21.9 mph 0.06 in Rain Light Rain
12:53 PM 53.6 °F 51.8 °F 94% 29.64 in 6.0 mi SSW 13.8 mph 20.7 mph 0.07 in Rain Light Rain
12:55 PM 55.0 °F 51.1 °F 86% 29.64 in 6.0 mi South 13.8 mph 20.7 mph 0.08 in Rain Light Rain
1:17 PM 55.0 °F 51.1 °F 86% 29.62 in 4.0 mi South 19.6 mph 28.8 mph 0.04 in Rain Rain
1:55 PM 55.0 °F 52.0 °F 89% 29.59 in 10.0 mi South 15.0 mph 26.5 mph 0.10 in Rain Light Rain
2:55 PM 55.0 °F 52.0 °F 89% 29.53 in 3.0 mi South 13.8 mph 27.6 mph 0.03 in Rain Light Rain
3:05 PM 55.0 °F 52.0 °F 89% 29.52 in 1.8 mi SSW 11.5 mph 24.2 mph 0.04 in Rain Heavy Rain
3:18 PM 55.0 °F 52.0 °F 89% 29.51 in 3.0 mi SSW 12.7 mph 19.6 mph 0.13 in Rain Rain
3:55 PM 55.0 °F 53.1 °F 93% 29.49 in 1.5 mi SSE 5.8 mph - 0.24 in Rain Heavy Rain
3:57 PM 55.0 °F 53.1 °F 93% 29.49 in 1.2 mi South 3.5 mph - 0.02 in Rain Heavy Rain
4:07 PM 54.0 °F 53.1 °F 97% 29.48 in 0.8 mi Variable 3.5 mph - 0.15 in Rain Heavy Rain
4:27 PM 54.0 °F 52.0 °F 93% 29.48 in 1.2 mi South 8.1 mph 19.6 mph 0.41 in Rain Heavy Rain
4:35 PM 55.9 °F 53.1 °F 90% 29.47 in 1.5 mi South 26.5 mph 34.5 mph 0.45 in Rain Rain
4:45 PM 55.9 °F 53.1 °F 90% 29.46 in 3.0 mi South 20.7 mph 36.8 mph 0.48 in Rain Light Rain
4:55 PM 55.9 °F 52.0 °F 87% 29.45 in 4.0 mi South 16.1 mph 34.5 mph 0.50 in Rain Light Rain
5:55 PM 55.9 °F 51.1 °F 84% 29.45 in 10.0 mi South 18.4 mph 34.5 mph 0.05 in Rain Light Rain
6:24 PM 55.0 °F 51.1 °F 86% 29.45 in 10.0 mi South 21.9 mph 36.8 mph 0.01 in Rain Light Rain
6:33 PM 55.0 °F 50.0 °F 83% 29.45 in 10.0 mi South 20.7 mph 36.8 mph 0.01 in   Overcast
6:55 PM 55.0 °F 50.0 °F 83% 29.45 in 10.0 mi South 21.9 mph 32.2 mph 0.01 in   Mostly Cloudy
7:25 PM 55.0 °F 50.0 °F 83% 29.45 in 10.0 mi SSW 21.9 mph 39.1 mph N/A   Overcast
7:55 PM 55.0 °F 50.0 °F 83% 29.45 in 9.0 mi SSW 21.9 mph 33.4 mph N/A   Overcast
8:06 PM 55.0 °F 50.0 °F 83% 29.45 in 10.0 mi South 20.7 mph 36.8 mph N/A   Overcast
8:55 PM 54.0 °F 50.0 °F 86% 29.45 in 8.0 mi SSW 24.2 mph 40.3 mph 0.03 in   Overcast
9:43 PM 54.0 °F 50.0 °F 86% 29.45 in 9.0 mi SSW 26.5 mph 43.7 mph 0.02 in Rain Light Rain
9:55 PM 53.1 °F 48.9 °F 86% 29.47 in 5.0 mi SSW 26.5 mph 50.6 mph 0.03 in Rain Light Rain
10:55 PM 54.0 °F 48.0 °F 80% 29.48 in 8.0 mi SSW 31.1 mph 47.2 mph 0.01 in   Overcast
11:10 PM 54.0 °F 46.9 °F 77% 29.48 in 8.0 mi SSW 28.8 mph 50.6 mph 0.00 in Rain Light Rain
11:55 PM 54.0 °F 46.9 °F 77% 29.49 in 9.0 mi SSW 32.2 mph 59.8 mph 0.00 in   Mostly Cloudy